Temperature
6 5 4 4 5 6 5 5 5 5 4 4 3 3 3 3 2 2 2 3 3 4 4 5 5 5 6 6 6 6 6 6 6 6 6 6 6 6 6 6 6 6 6 6
4 4 4 5 5 5 5 5 4 4 4 4 2 2 2 2 1 2 2 2 2 3 4 4 5 5 5 5 5 5 6 5 5 5 5 5 5 6 6 6 6 6 6 6
5 4 4 5 4 5 5 4 4 4 3 2 2 3 2 2 1 1 1 2 2 2 3 3 4 4 4 5 5 5 5 5 5 5 5 5 5 5 5 5 5 5 5 5
3 3 4 4 4 4 4 4 4 3 3 2 2 3 2 1 0 0 0 1 1 2 2 3 3 4 4 4 4 4 4 4 4 4 4 4 4 4 5 4 4 5 5 5
3 3 3 4 4 4 3 3 3 2 2 1 1 1 2 0 1 1 0 0 1 1 2 2 3 3 3 3 4 4 4 4 4 4 4 4 4 4 4 4 4 4 4 4
2 2 2 3 3 3 2 2 2 1 1 2 1 1 1 0 1 1 0 0 1 1 1 2 2 2 3 3 3 3 3 3 3 3 3 3 3 3 3 3 3 3 3 3
2 2 2 2 2 2 2 2 2 2 1 2 0 0 1 0 -0 -0 -0 0 0 0 1 1 1 2 2 2 2 2 2 3 3 2 2 2 2 2 2 2 2 3 3 3
2 2 1 1 2 2 1 2 2 3 2 1 -0 -0 0 -1 -1 -1 -1 -0 -0 -0 0 1 1 1 1 1 1 2 2 2 2 2 2 2 2 2 2 2 2 2 2 2
1 2 1 1 1 1 1 0 1 -0 -1 -0 0 -1 -1 -1 -1 -2 -2 -1 -1 -0 -0 0 0 0 1 1 1 1 1 1 1 1 1 1 1 1 1 1 1 1 1 1
0 0 0 -0 1 0 0 -1 -1 -0 1 1 0 -1 0 -0 -1 -2 -2 -2 -1 -1 -1 -1 -0 -0 -0 0 0 0 0 0 0 1 1 1 1 1 1 1 1 1 1 1
-1 -0 -1 -1 -1 -0 -1 -1 -1 -2 -1 -0 0 1 -1 -1 -1 -2 -3 -2 -1 -1 -1 -1 -1 -1 -1 -1 -1 -1 -1 -0 -0 -0 -0 -0 -0 0 0 0 0 0 0 0
-2 -2 -2 -2 -2 -2 -2 -2 -2 -1 -1 -3 -2 -0 -1 -3 -3 -3 -3 -2 -2 -1 -2 -2 -1 -1 -1 -1 -1 -1 -1 -1 -1 -1 -1 -1 -1 -1 -1 -1 -0 -0 -0 -0
-2 -2 -1 -0 -1 -3 -3 -3 -3 -3 -3 -4 -2 -1 -2 -4 -4 -3 -3 -2 -2 -2 -2 -2 -2 -2 -2 -2 -2 -2 -2 -2 -2 -2 -2 -2 -2 -1 -1 -1 -1 -1 -1 -1
-2 -3 -2 -0 -1 -3 -3 -4 -4 -4 -3 -3 -3 -2 -2 -3 -4 -4 -3 -3 -3 -3 -3 -3 -3 -3 -3 -3 -2 -2 -2 -3 -2 -2 -2 -2 -2 -2 -2 -2 -2 -2 -1 -1
-3 -3 -4 -4 -4 -4 -4 -4 -5 -4 -4 -3 -3 -3 -3 -3 -4 -4 -3 -3 -3 -4 -3 -4 -4 -3 -3 -3 -3 -3 -3 -3 -3 -3 -3 -2 -2 -3 -3 -3 -2 -2 -2 -2
-4 -4 -4 -4 -4 -4 -4 -4 -5 -5 -4 -5 -4 -4 -4 -4 -4 -4 -4 -4 -4 -4 -4 -4 -4 -4 -4 -4 -4 -4 -4 -4 -3 -3 -3 -3 -3 -3 -3 -3 -3 -3 -3 -3
-5 -5 -4 -4 -5 -4 -4 -4 -5 -5 -6 -5 -4 -3 -5 -5 -5 -5 -5 -5 -4 -4 -4 -4 -4 -4 -4 -4 -4 -4 -4 -4 -4 -4 -4 -4 -4 -4 -4 -4 -4 -4 -4 -4
-6 -5 -5 -5 -5 -3 -2 -5 -5 -5 -6 -7 -6 -6 -6 -6 -5 -4 -4 -4 -4 -4 -4 -4 -4 -4 -4 -5 -5 -5 -5 -5 -5 -5 -5 -5 -5 -5 -5 -4 -4 -4 -5 -4
-6 -5 -6 -6 -5 -5 -4 -6 -7 -6 -5 -7 -7 -7 -6 -6 -6 -5 -4 -4 -4 -4 -4 -4 -5 -5 -5 -5 -5 -5 -5 -5 -5 -5 -5 -5 -5 -5 -5 -5 -5 -5 -5 -5
-7 -6 -6 -6 -5 -4 -3 -6 -7 -6 -5 -6 -7 -7 -7 -7 -6 -5 -4 -4 -5 -5 -5 -5 -5 -5 -6 -6 -6 -6 -6 -6 -6 -6 -6 -6 -6 -6 -6 -6 -6 -6 -6 -6
-7 -7 -7 -7 -6 -5 -6 -7 -6 -4 -4 -6 -6 -6 -7 -8 -6 -5 -5 -5 -5 -5 -5 -5 -6 -6 -6 -6 -6 -6 -6 -7 -7 -7 -7 -7 -7 -7 -7 -7 -7 -7 -7 -7
-7 -8 -8 -8 -7 -5 -7 -8 -7 -6 -5 -6 -6 -6 -6 -6 -6 -6 -6 -6 -6 -6 -6 -6 -6 -6 -7 -7 -7 -7 -7 -7 -7 -7 -7 -7 -7 -7 -7 -7 -7 -7 -7 -7
-8 -8 -8 -7 -6 -6 -7 -6 -6 -6 -6 -6 -6 -6 -6 -7 -7 -6 -6 -6 -6 -6 -6 -7 -7 -7 -7 -8 -8 -8 -8 -8 -8 -8 -8 -8 -8 -8 -8 -8 -8 -8 -8 -8
-10 -10 -9 -9 -8 -8 -7 -6 -6 -6 -6 -6 -6 -6 -7 -7 -7 -7 -7 -7 -7 -7 -7 -7 -8 -8 -8 -8 -8 -8 -9 -9 -9 -8 -8 -9 -8 -8 -8 -9 -9 -9 -9 -9
-9 -11 -10 -10 -10 -9 -7 -7 -6 -7 -7 -7 -7 -7 -7 -7 -7 -7 -8 -8 -8 -8 -8 -8 -8 -8 -8 -9 -9 -9 -9 -9 -9 -9 -9 -9 -9 -9 -9 -9 -9 -9 -9 -10
-11 -11 -10 -8 -8 -9 -7 -6 -7 -7 -7 -7 -8 -8 -8 -8 -8 -8 -8 -8 -8 -9 -9 -9 -9 -9 -9 -9 -9 -10 -10 -10 -10 -10 -10 -10 -10 -10 -10 -10 -10 -10 -10 -10
Wind_Speed
2 3 2 5 5 3 3 4 4 4 1 1 5 7 7 4 2 3 3 3 4 4 3 3 3 3 3 3 3 2 1 1 2 1 1 1 1 1 1 1 2 3 3 4
3 2 4 2 2 2 2 3 4 3 1 1 4 7 6 4 3 3 3 4 4 3 3 3 3 3 3 3 3 2 1 0 1 1 1 1 1 1 1 1 2 2 3 4
5 3 2 2 2 2 3 5 5 4 3 1 3 6 4 2 2 1 2 3 3 3 3 2 2 2 2 2 2 1 2 1 1 1 2 2 2 2 1 1 0 1 2 3
1 2 1 1 2 3 6 3 3 2 1 3 0 5 5 3 3 4 4 3 3 3 2 2 1 1 1 1 1 2 2 3 2 2 2 2 2 1 1 1 1 0 1 2
1 0 1 2 2 3 4 0 1 2 3 2 1 3 7 2 4 6 5 4 4 3 3 2 2 1 1 1 1 2 2 3 3 2 2 2 1 0 0 1 1 1 0 1
1 1 0 1 1 1 2 2 2 3 2 4 5 5 7 3 5 5 4 3 3 2 2 1 1 1 1 2 2 2 3 3 3 3 3 1 1 1 1 0 0 1 0 0
2 2 2 1 2 2 3 3 2 3 2 6 3 4 8 5 4 4 5 4 3 1 1 0 1 1 1 2 2 2 2 2 3 3 2 2 1 1 2 1 1 1 1 1
1 4 1 1 1 2 2 4 5 4 5 5 2 7 6 3 3 3 3 2 2 2 1 1 1 1 0 1 1 1 1 2 2 2 2 2 1 1 0 1 1 1 1 1
3 4 1 1 1 2 3 3 2 4 0 3 6 6 7 2 3 2 2 2 3 2 1 1 1 0 0 0 1 1 1 1 1 1 2 2 2 1 1 1 1 1 1 1
4 2 3 2 1 2 2 5 4 4 3 5 6 5 4 4 5 4 3 3 3 3 2 1 1 1 1 1 0 1 1 1 1 1 1 2 2 1 1 1 2 1 1 1
2 2 3 1 3 4 2 2 3 3 3 4 5 6 4 5 4 4 5 4 3 3 2 2 1 1 0 0 0 1 1 2 2 2 2 2 2 2 1 1 2 2 1 1
2 3 2 4 1 1 2 4 5 4 4 4 4 7 3 2 2 3 4 4 3 2 2 2 1 1 1 1 1 1 1 1 1 2 2 2 2 1 1 1 2 1 2 2
4 4 1 4 2 2 1 2 3 3 3 4 5 7 2 1 2 3 3 4 3 2 2 2 1 1 1 1 1 1 1 1 1 1 1 1 2 2 2 2 2 2 2 2
4 3 5 7 5 3 3 3 4 5 4 5 9 10 7 6 5 5 4 4 3 2 1 2 2 2 2 2 1 1 1 1 1 1 1 1 2 2 2 2 2 2 2 2
3 3 4 5 4 3 5 6 6 9 8 9 8 9 10 7 6 5 4 4 3 3 3 2 2 2 2 2 2 2 2 2 1 1 1 2 2 2 2 2 2 2 2 2
2 2 1 3 3 3 5 8 9 9 8 9 9 11 8 6 4 4 4 3 3 3 3 3 3 3 3 3 2 2 2 2 1 1 2 2 2 2 2 2 2 2 2 2
2 3 1 4 4 4 8 9 9 6 7 8 11 11 4 4 5 5 4 3 4 4 4 4 4 3 3 3 2 2 2 2 1 1 2 2 2 2 2 2 2 2 2 2
5 4 2 1 3 7 7 1 6 7 7 8 7 6 4 5 6 4 3 4 5 4 4 4 4 4 3 2 2 1 1 1 1 1 2 2 2 2 2 2 2 2 2 2
3 5 3 2 3 8 7 3 3 5 7 6 9 8 5 3 3 4 2 3 4 4 4 4 3 3 2 2 1 0 1 1 1 2 2 2 2 2 2 2 3 2 2 2
3 3 4 3 3 7 6 1 1 2 6 3 4 6 4 1 2 5 2 2 4 3 3 2 2 1 1 2 0 0 1 1 2 3 3 3 2 2 2 3 3 2 2 2
2 2 4 5 6 8 5 1 3 3 5 2 3 4 3 5 6 4 4 4 3 3 3 2 1 1 2 1 1 1 1 2 3 2 2 2 2 2 3 2 2 2 2 2
6 5 5 5 5 8 2 5 6 5 2 1 2 3 4 5 5 4 4 4 3 3 3 2 1 2 2 1 1 1 2 3 2 1 2 2 2 2 2 1 2 2 1 1
6 7 5 8 7 3 4 5 3 1 2 3 3 3 3 4 4 5 4 4 3 3 3 2 1 2 2 2 1 2 3 2 1 1 2 2 2 2 2 2 2 2 1 1
4 2 3 5 7 5 4 4 4 3 4 4 3 3 3 4 5 5 4 4 4 3 3 2 1 2 3 2 2 2 2 1 1 1 2 2 2 2 2 2 2 2 2 2
4 4 3 6 7 6 5 4 5 5 4 4 4 4 4 5 5 5 5 4 4 4 3 2 2 3 3 2 2 2 2 1 1 1 2 2 2 2 2 2 2 3 3 3
4 5 6 7 5 4 6 4 3 4 5 5 4 4 3 4 5 5 4 4 3 3 3 2 2 3 3 2 2 2 2 1 1 2 2 2 2 2 2 2 3 5 4 6
Wind_Direction
50 91 195 221 214 205 176 200 242 253 271 228 245 262 274 276 267 272 284 287 286 283 306 347 6 15 23 31 39 48 74 104 122 117 130 141 164 173 145 126 127 139 144 147
61 237 242 211 187 185 191 230 257 284 337 232 269 270 267 248 234 239 254 270 280 306 338 340 360 18 27 30 21 22 40 74 152 159 156 155 137 140 130 106 96 126 138 143
173 227 228 156 149 194 225 216 237 255 330 354 320 291 271 259 232 292 274 265 275 268 280 298 327 349 8 7 2 10 16 17 29 90 97 84 79 70 64 41 65 64 131 134
167 294 118 159 200 187 244 236 224 220 230 280 356 281 271 272 289 292 289 292 279 278 268 275 283 322 328 316 356 19 29 39 40 83 116 133 147 169 200 192 201 123 105 123
224 293 105 202 227 193 219 216 175 184 186 277 251 233 279 312 280 280 280 280 282 267 250 250 251 255 305 355 26 29 46 46 42 56 109 132 115 119 105 113 131 130 89 124
246 304 145 216 297 165 150 87 79 74 108 255 222 201 271 237 241 271 281 284 276 274 270 282 313 46 28 24 36 41 51 39 32 42 54 77 120 119 106 134 171 181 198 197
324 313 359 35 64 39 70 89 13 333 291 249 200 210 250 242 244 245 265 282 287 286 267 311 21 27 9 10 20 35 52 33 27 35 38 47 56 159 181 203 218 221 218 244
216 272 277 7 159 186 194 154 169 221 246 279 245 235 252 253 286 281 281 291 334 334 291 258 250 209 260 335 359 25 44 20 22 29 17 24 47 52 318 258 243 251 258 256
187 245 342 7 348 136 148 184 169 143 176 273 263 279 299 282 303 324 331 339 326 319 298 273 301 279 264 303 318 322 358 4 8 7 15 17 16 30 358 329 283 270 278 289
161 243 291 306 63 35 130 147 118 150 207 263 281 267 254 270 270 288 301 291 293 313 311 296 280 284 291 284 314 15 7 323 343 1 4 353 349 343 343 335 324 295 285 297
135 176 305 356 190 200 130 139 140 157 180 195 265 270 229 222 237 249 262 271 277 286 285 282 280 292 308 6 37 34 6 9 2 352 351 355 342 339 347 339 318 318 297 264
132 132 251 252 251 345 172 180 164 187 232 200 219 267 275 224 264 273 281 289 291 287 290 290 290 308 326 304 338 360 355 351 337 337 344 343 337 346 351 334 326 320 316 302
140 122 355 339 341 2 257 210 182 157 154 188 207 261 309 3 320 299 290 300 299 301 310 309 305 276 281 290 302 313 313 315 331 342 340 340 339 334 328 322 319 322 317 320
129 153 190 219 236 198 228 225 183 165 200 225 230 253 281 301 302 305 298 293 287 294 311 318 307 293 296 298 298 298 308 323 336 350 345 334 322 316 313 320 326 323 317 314
124 200 226 252 267 224 227 230 202 205 214 220 243 247 265 275 276 286 292 304 315 326 327 315 308 303 310 314 315 314 308 315 327 341 332 318 319 323 330 333 328 322 316 309
113 171 193 280 282 260 267 252 227 226 232 240 261 269 262 279 289 297 295 292 293 300 305 313 316 313 304 301 301 304 299 306 332 329 314 323 335 340 337 333 332 328 323 316
144 142 167 271 305 324 273 237 211 214 214 204 234 252 283 291 286 278 277 274 272 286 293 296 293 288 290 286 281 270 279 303 322 317 320 330 333 330 325 327 337 331 323 315
156 150 165 279 4 253 250 219 197 216 241 221 239 265 272 265 278 271 252 244 271 288 292 289 286 290 291 285 287 282 292 300 314 317 317 321 325 318 317 322 322 319 313 304
174 160 158 178 251 275 287 252 179 198 266 229 233 259 277 307 323 294 243 227 249 261 269 272 270 274 282 281 282 308 329 331 326 311 309 307 302 304 307 307 307 309 312 312
67 127 155 172 217 250 263 274 195 128 283 264 214 247 259 96 291 279 298 298 291 291 287 286 288 296 279 278 237 172 282 297 289 291 295 299 296 287 286 287 295 301 298 297
132 149 188 203 231 262 265 244 128 174 259 290 219 235 203 206 231 277 318 314 307 304 308 309 300 289 272 261 182 222 264 270 282 295 302 302 298 287 279 285 290 291 297 308
182 181 196 180 213 255 207 139 186 229 293 273 255 240 229 243 273 297 306 307 316 320 320 320 315 309 303 260 193 249 272 281 298 304 304 304 306 301 301 293 296 297 288 301
204 198 196 199 217 252 176 205 240 277 274 276 267 267 250 258 274 291 296 296 298 296 297 297 284 302 306 285 223 242 278 292 309 313 307 306 311 310 305 298 296 300 286 278
247 212 205 250 263 261 249 270 291 280 266 278 272 271 252 254 270 276 283 287 286 285 282 279 273 282 295 299 295 258 277 296 298 300 304 305 313 315 315 302 289 284 275 273
225 177 217 258 281 304 279 260 277 286 290 293 292 275 258 255 267 266 274 277 275 281 278 264 253 262 276 290 295 292 290 269 280 292 293 302 305 300 307 307 289 283 263 255
199 189 199 241 251 235 268 287 289 284 284 281 283 290 280 250 260 269 273 273 273 277 276 273 265 269 279 287 292 295 285 239 232 283 291 290 293 296 301 309 318 312 299 299
Height
1492 1497 1500 1499 1500 1500 1502 1504 1506 1504 1503 1505 1505 1503 1501 1499 1499 1498 1497 1497 1497 1497 1498 1498 1499 1499 1499 1500 1501 1502 1503 1504 1505 1506 1507 1508 1510 1512 1513 1515 1516 1517 1518 1519
1496 1499 1498 1498 1499 1500 1502 1504 1505 1505 1504 1505 1505 1502 1498 1497 1497 1496 1496 1495 1495 1495 1495 1495 1496 1496 1496 1497 1498 1499 1500 1501 1503 1504 1505 1506 1508 1509 1511 1512 1513 1515 1516 1517
1496 1498 1497 1498 1499 1500 1501 1503 1504 1506 1506 1506 1507 1500 1497 1494 1494 1494 1493 1493 1493 1492 1492 1492 1493 1493 1494 1495 1496 1497 1498 1499 1501 1502 1503 1504 1505 1506 1508 1508 1510 1511 1513 1514
1498 1497 1497 1497 1499 1499 1500 1501 1502 1504 1508 1510 1509 1506 1495 1494 1493 1491 1490 1490 1489 1489 1490 1490 1490 1491 1492 1493 1494 1495 1496 1497 1498 1499 1500 1501 1502 1503 1504 1506 1507 1508 1509 1510
1498 1497 1497 1497 1498 1498 1500 1501 1502 1504 1507 1512 1512 1511 1497 1495 1493 1489 1488 1487 1487 1487 1487 1487 1488 1489 1490 1491 1493 1494 1495 1496 1496 1497 1499 1499 1500 1501 1502 1503 1504 1505 1506 1507
1498 1497 1497 1498 1498 1498 1500 1502 1504 1508 1510 1510 1509 1511 1499 1495 1489 1486 1485 1485 1484 1484 1485 1485 1486 1487 1488 1489 1490 1492 1492 1493 1494 1495 1496 1497 1498 1498 1499 1500 1500 1502 1503 1504
1499 1498 1498 1498 1498 1500 1501 1505 1510 1509 1513 1507 1508 1508 1497 1488 1486 1485 1484 1483 1482 1482 1482 1483 1484 1484 1486 1487 1488 1489 1490 1491 1492 1493 1494 1495 1495 1496 1497 1497 1498 1499 1500 1501
1501 1501 1499 1499 1499 1500 1502 1503 1508 1510 1509 1507 1508 1504 1492 1486 1484 1483 1483 1482 1481 1481 1481 1481 1482 1483 1483 1485 1486 1487 1487 1489 1489 1490 1491 1492 1492 1493 1494 1495 1496 1496 1497 1498
1502 1500 1500 1499 1499 1499 1502 1506 1506 1514 1519 1517 1505 1501 1492 1484 1483 1482 1481 1480 1480 1480 1480 1480 1481 1481 1482 1482 1483 1484 1485 1486 1487 1488 1488 1489 1490 1490 1491 1492 1493 1494 1494 1495
1501 1504 1501 1500 1500 1501 1502 1505 1511 1512 1510 1508 1503 1501 1492 1484 1482 1481 1480 1479 1479 1479 1479 1479 1479 1479 1480 1481 1481 1482 1483 1484 1484 1485 1486 1486 1487 1487 1488 1489 1489 1490 1491 1492
1500 1505 1505 1502 1503 1502 1504 1507 1508 1512 1512 1510 1507 1495 1484 1482 1480 1480 1479 1478 1478 1478 1478 1477 1478 1478 1478 1479 1479 1479 1480 1481 1481 1482 1483 1483 1484 1485 1485 1486 1486 1487 1488 1489
1501 1505 1507 1505 1504 1503 1503 1504 1507 1507 1509 1514 1511 1496 1480 1480 1479 1479 1479 1477 1477 1477 1476 1476 1476 1476 1476 1476 1476 1477 1477 1478 1479 1479 1480 1480 1481 1481 1482 1482 1483 1484 1484 1485
1500 1505 1505 1501 1506 1507 1505 1505 1507 1508 1510 1514 1509 1493 1481 1480 1479 1478 1478 1476 1476 1475 1475 1474 1474 1474 1474 1474 1474 1474 1475 1475 1476 1476 1477 1477 1478 1478 1478 1478 1479 1479 1480 1481
1496 1503 1504 1500 1497 1502 1504 1504 1506 1506 1506 1507 1501 1489 1481 1480 1479 1477 1476 1475 1474 1473 1473 1472 1471 1471 1471 1471 1471 1472 1472 1473 1473 1474 1474 1474 1474 1475 1475 1475 1475 1475 1475 1476
1496 1502 1503 1502 1501 1501 1500 1500 1502 1502 1498 1496 1489 1488 1480 1478 1478 1476 1475 1474 1473 1471 1470 1470 1469 1469 1469 1469 1469 1469 1469 1470 1470 1471 1471 1471 1471 1471 1471 1471 1471 1471 1471 1471
1497 1501 1503 1502 1500 1500 1498 1495 1496 1496 1495 1493 1489 1484 1476 1476 1475 1474 1473 1472 1471 1470 1469 1468 1468 1467 1467 1466 1466 1467 1467 1467 1468 1468 1468 1468 1468 1468 1468 1468 1467 1467 1467 1467
1499 1502 1501 1500 1502 1497 1494 1487 1488 1490 1487 1486 1484 1476 1474 1474 1473 1472 1470 1470 1469 1468 1467 1467 1466 1465 1465 1464 1464 1464 1464 1465 1465 1465 1465 1465 1465 1465 1464 1464 1464 1463 1463 1463
1498 1500 1503 1504 1502 1496 1479 1479 1479 1480 1479 1479 1476 1473 1473 1472 1470 1469 1469 1468 1467 1466 1466 1465 1464 1463 1463 1462 1462 1462 1462 1462 1462 1462 1462 1462 1462 1461 1461 1460 1460 1460 1459 1459
1494 1497 1503 1505 1503 1492 1480 1478 1480 1480 1476 1473 1473 1471 1470 1470 1469 1467 1466 1466 1465 1465 1464 1463 1462 1461 1460 1460 1459 1459 1459 1459 1459 1459 1459 1459 1458 1458 1457 1457 1457 1456 1456 1455
1495 1496 1501 1504 1499 1490 1476 1477 1476 1478 1475 1468 1469 1468 1469 1470 1471 1466 1464 1463 1463 1462 1462 1460 1459 1458 1458 1457 1456 1456 1455 1455 1455 1456 1456 1455 1455 1454 1454 1453 1453 1453 1452 1452
1497 1499 1501 1502 1499 1485 1477 1476 1476 1480 1472 1468 1466 1466 1466 1467 1466 1464 1462 1461 1461 1460 1459 1458 1457 1456 1455 1454 1454 1453 1453 1452 1453 1452 1452 1452 1452 1451 1450 1450 1450 1449 1449 1448
1492 1497 1499 1499 1497 1484 1474 1475 1476 1471 1467 1465 1464 1464 1464 1463 1462 1461 1460 1459 1458 1457 1456 1455 1454 1453 1453 1452 1451 1450 1450 1450 1450 1449 1449 1449 1448 1448 1447 1447 1446 1446 1445 1444
1488 1485 1485 1484 1478 1471 1470 1468 1467 1467 1465 1464 1463 1462 1462 1460 1459 1459 1457 1456 1455 1455 1454 1453 1451 1450 1450 1449 1448 1447 1447 1447 1446 1446 1446 1445 1445 1445 1444 1443 1443 1442 1442 1441
1482 1481 1481 1479 1470 1467 1467 1466 1465 1464 1463 1462 1461 1460 1459 1458 1457 1456 1455 1454 1453 1452 1451 1450 1449 1447 1447 1447 1446 1445 1445 1444 1444 1443 1443 1442 1442 1441 1441 1440 1440 1439 1439 1438
1475 1478 1478 1474 1468 1464 1462 1461 1461 1461 1460 1459 1458 1457 1456 1455 1454 1453 1452 1451 1449 1448 1447 1447 1446 1445 1444 1444 1443 1443 1442 1441 1441 1440 1440 1440 1439 1438 1438 1437 1437 1436 1436 1436
1471 1472 1473 1467 1463 1463 1460 1458 1458 1458 1456 1455 1454 1453 1453 1452 1451 1449 1448 1447 1446 1445 1444 1443 1442 1442 1441 1441 1440 1440 1439 1439 1438 1437 1437 1437 1436 1435 1435 1434 1434 1433 1433 1433